Time,TemperatureF,DewpointF,PressureIn,WindDirection,WindDirectionDegrees,WindSpeedMPH,WindSpeedGustMPH,Humidity,HourlyPrecipIn,Conditions,Clouds,dailyrainin,SoftwareType,DateUTC
2013-05-03 00:01:00,55.3,49.9,30.18,East,86,0.0,3.0,82,0.00,,,0.00,WUHU216DAVISVP2,2013-05-03 04:01:00,
2013-05-03 00:06:00,55.5,50.1,30.19,East,86,0.0,3.0,82,0.00,,,0.00,WUHU216DAVISVP2,2013-05-03 04:06:00,
2013-05-03 00:11:00,55.5,49.8,30.19,East,86,1.0,1.0,81,0.00,,,0.00,WUHU216DAVISVP2,2013-05-03 04:11:00,
2013-05-03 00:16:00,55.5,49.1,30.19,SE,143,0.0,1.0,79,0.00,,,0.00,WUHU216DAVISVP2,2013-05-03 04:16:00,
2013-05-03 00:21:00,55.6,49.6,30.19,SE,142,0.0,1.0,80,0.00,,,0.00,WUHU216DAVISVP2,2013-05-03 04:21:00,
2013-05-03 00:26:00,55.6,49.6,30.19,SE,142,0.0,1.0,80,0.00,,,0.00,WUHU216DAVISVP2,2013-05-03 04:26:00,
2013-05-03 00:31:00,55.5,49.5,30.19,SE,142,0.0,1.0,80,0.00,,,0.00,WUHU216DAVISVP2,2013-05-03 04:31:00,
2013-05-03 00:36:00,55.3,49.0,30.19,East,83,1.3,2.0,79,0.00,,,0.00,WUHU216DAVISVP2,2013-05-03 04:36:00,
2013-05-03 00:41:00,54.9,48.6,30.18,SE,139,1.0,2.0,79,0.00,,,0.00,WUHU216DAVISVP2,2013-05-03 04:41:00,
2013-05-03 00:46:00,55.1,48.8,30.18,SSW,201,1.0,2.0,79,0.00,,,0.00,WUHU216DAVISVP2,2013-05-03 04:46:00,
2013-05-03 00:51:00,55.1,49.4,30.18,WSW,238,1.0,2.0,81,0.00,,,0.00,WUHU216DAVISVP2,2013-05-03 04:51:00,
2013-05-03 00:56:00,54.4,48.7,30.18,WSW,238,1.0,2.0,81,0.00,,,0.00,WUHU216DAVISVP2,2013-05-03 04:56:00,
2013-05-03 01:01:00,54.2,48.5,30.18,WSW,238,0.0,2.0,81,0.00,,,0.00,WUHU216DAVISVP2,2013-05-03 05:01:00,
2013-05-03 01:06:00,54.0,48.3,30.18,WSW,238,0.0,1.0,81,0.00,,,0.00,WUHU216DAVISVP2,2013-05-03 05:06:00,
2013-05-03 01:11:00,53.4,48.1,30.18,WSW,238,0.0,1.0,82,0.00,,,0.00,WUHU216DAVISVP2,2013-05-03 05:11:00,
2013-05-03 01:16:00,53.3,48.3,30.18,WSW,238,0.0,1.0,83,0.00,,,0.00,WUHU216DAVISVP2,2013-05-03 05:16:00,
2013-05-03 01:21:00,52.8,47.8,30.18,WSW,238,0.0,1.0,83,0.00,,,0.00,WUHU216DAVISVP2,2013-05-03 05:21:00,
2013-05-03 01:26:00,52.6,47.6,30.18,ESE,111,0.0,1.0,83,0.00,,,0.00,WUHU216DAVISVP2,2013-05-03 05:26:00,
2013-05-03 01:31:00,52.4,47.4,30.18,ESE,117,1.0,1.0,83,0.00,,,0.00,WUHU216DAVISVP2,2013-05-03 05:31:00,
2013-05-03 01:36:00,52.5,47.5,30.18,ESE,117,0.0,1.0,83,0.00,,,0.00,WUHU216DAVISVP2,2013-05-03 05:36:00,
2013-05-03 01:41:00,52.3,47.3,30.18,ESE,117,0.0,1.0,83,0.00,,,0.00,WUHU216DAVISVP2,2013-05-03 05:41:00,
2013-05-03 01:46:00,52.1,46.8,30.18,ESE,117,0.0,1.0,82,0.00,,,0.00,WUHU216DAVISVP2,2013-05-03 05:46:00,
2013-05-03 01:51:00,51.9,46.9,30.18,ESE,117,0.0,1.0,83,0.00,,,0.00,WUHU216DAVISVP2,2013-05-03 05:51:00,
2013-05-03 01:56:00,51.4,46.7,30.17,ESE,117,0.0,1.0,84,0.00,,,0.00,WUHU216DAVISVP2,2013-05-03 05:56:00,
2013-05-03 02:01:00,50.8,46.7,30.17,ESE,117,0.0,1.0,86,0.00,,,0.00,WUHU216DAVISVP2,2013-05-03 06:01:00,
2013-05-03 02:06:00,50.3,46.3,30.18,ESE,117,0.0,1.0,86,0.00,,,0.00,WUHU216DAVISVP2,2013-05-03 06:06:00,
2013-05-03 02:11:00,50.0,46.6,30.18,ESE,117,0.0,1.0,88,0.00,,,0.00,WUHU216DAVISVP2,2013-05-03 06:11:00,
2013-05-03 02:16:00,49.9,46.8,30.17,ESE,117,0.0,0.0,89,0.00,,,0.00,WUHU216DAVISVP2,2013-05-03 06:16:00,
2013-05-03 02:22:00,49.9,46.8,30.17,ESE,117,0.0,0.0,89,0.00,,,0.00,WUHU216DAVISVP2,2013-05-03 06:22:00,
2013-05-03 02:27:00,50.1,47.0,30.17,ESE,117,0.0,0.0,89,0.00,,,0.00,WUHU216DAVISVP2,2013-05-03 06:27:00,
2013-05-03 02:32:00,49.9,46.8,30.17,ESE,117,0.0,0.0,89,0.00,,,0.00,WUHU216DAVISVP2,2013-05-03 06:32:00,
2013-05-03 02:37:00,49.6,46.5,30.17,ESE,117,0.0,0.0,89,0.00,,,0.00,WUHU216DAVISVP2,2013-05-03 06:37:00,
2013-05-03 02:42:00,48.9,45.8,30.17,ESE,117,0.0,0.0,89,0.00,,,0.00,WUHU216DAVISVP2,2013-05-03 06:42:00,
2013-05-03 02:47:00,48.9,46.1,30.17,ESE,117,0.0,1.0,90,0.00,,,0.00,WUHU216DAVISVP2,2013-05-03 06:47:00,
2013-05-03 02:52:00,48.5,45.4,30.17,ESE,117,0.0,1.0,89,0.00,,,0.00,WUHU216DAVISVP2,2013-05-03 06:52:00,
2013-05-03 02:57:00,48.1,45.3,30.17,ESE,117,0.0,1.0,90,0.00,,,0.00,WUHU216DAVISVP2,2013-05-03 06:57:00,
2013-05-03 03:02:00,47.7,44.9,30.17,ESE,117,1.0,1.0,90,0.00,,,0.00,WUHU216DAVISVP2,2013-05-03 07:02:00,
2013-05-03 03:07:00,47.8,45.6,30.17,ESE,117,1.0,1.0,92,0.00,,,0.00,WUHU216DAVISVP2,2013-05-03 07:07:00,
2013-05-03 03:12:00,47.6,45.1,30.17,ESE,122,1.0,1.0,91,0.00,,,0.00,WUHU216DAVISVP2,2013-05-03 07:12:00,
2013-05-03 03:17:00,47.6,45.1,30.17,ESE,122,0.0,1.0,91,0.00,,,0.00,WUHU216DAVISVP2,2013-05-03 07:17:00,
2013-05-03 03:22:00,47.2,44.7,30.17,ESE,122,0.0,1.0,91,0.00,,,0.00,WUHU216DAVISVP2,2013-05-03 07:22:00,
2013-05-03 03:27:00,46.7,44.2,30.17,ESE,122,0.0,1.0,91,0.00,,,0.00,WUHU216DAVISVP2,2013-05-03 07:27:00,
2013-05-03 03:32:00,46.5,44.3,30.17,ESE,122,0.0,1.0,92,0.00,,,0.00,WUHU216DAVISVP2,2013-05-03 07:32:00,
2013-05-03 03:37:00,46.4,44.2,30.17,ESE,122,0.0,1.0,92,0.00,,,0.00,WUHU216DAVISVP2,2013-05-03 07:37:00,
2013-05-03 03:42:00,45.8,43.6,30.17,ESE,122,0.0,1.0,92,0.00,,,0.00,WUHU216DAVISVP2,2013-05-03 07:42:00,
2013-05-03 03:47:00,46.0,44.0,30.17,ESE,122,0.0,1.0,93,0.00,,,0.00,WUHU216DAVISVP2,2013-05-03 07:47:00,
2013-05-03 03:52:00,46.3,44.3,30.17,ESE,122,0.0,1.0,93,0.00,,,0.00,WUHU216DAVISVP2,2013-05-03 07:52:00,
2013-05-03 03:57:00,45.7,43.5,30.17,ESE,122,0.0,1.0,92,0.00,,,0.00,WUHU216DAVISVP2,2013-05-03 07:57:00,
2013-05-03 04:02:00,45.5,43.5,30.17,ESE,123,0.0,1.0,93,0.00,,,0.00,WUHU216DAVISVP2,2013-05-03 08:02:00,
2013-05-03 04:07:00,45.2,43.0,30.17,ESE,122,0.0,0.0,92,0.00,,,0.00,WUHU216DAVISVP2,2013-05-03 08:07:00,
2013-05-03 04:12:00,45.1,43.2,30.17,ESE,122,0.0,0.0,93,0.00,,,0.00,WUHU216DAVISVP2,2013-05-03 08:12:00,
2013-05-03 04:17:00,44.7,42.8,30.17,ESE,122,0.0,0.0,93,0.00,,,0.00,WUHU216DAVISVP2,2013-05-03 08:17:00,
2013-05-03 04:22:00,44.3,42.4,30.17,ESE,122,0.0,0.0,93,0.00,,,0.00,WUHU216DAVISVP2,2013-05-03 08:22:00,
2013-05-03 04:27:00,44.3,42.4,30.17,ESE,122,0.0,0.0,93,0.00,,,0.00,WUHU216DAVISVP2,2013-05-03 08:27:00,
2013-05-03 04:32:00,44.4,42.5,30.17,ESE,122,0.0,0.0,93,0.00,,,0.00,WUHU216DAVISVP2,2013-05-03 08:32:00,
2013-05-03 04:37:00,44.3,42.4,30.17,ESE,122,0.0,0.0,93,0.00,,,0.00,WUHU216DAVISVP2,2013-05-03 08:37:00,
2013-05-03 04:42:00,43.5,41.6,30.17,ESE,122,0.0,0.0,93,0.00,,,0.00,WUHU216DAVISVP2,2013-05-03 08:42:00,
2013-05-03 04:47:00,43.1,41.2,30.17,ESE,122,0.0,0.0,93,0.00,,,0.00,WUHU216DAVISVP2,2013-05-03 08:47:00,
2013-05-03 04:52:00,42.8,40.9,30.17,ESE,122,0.0,0.0,93,0.00,,,0.00,WUHU216DAVISVP2,2013-05-03 08:52:00,
2013-05-03 04:57:00,42.9,41.0,30.17,ESE,122,0.0,0.0,93,0.00,,,0.00,WUHU216DAVISVP2,2013-05-03 08:57:00,
2013-05-03 05:02:00,43.1,41.2,30.17,ESE,122,0.0,0.0,93,0.00,,,0.00,WUHU216DAVISVP2,2013-05-03 09:02:00,
2013-05-03 05:07:00,43.1,41.2,30.17,ESE,122,0.0,0.0,93,0.00,,,0.00,WUHU216DAVISVP2,2013-05-03 09:07:00,
2013-05-03 05:12:00,42.9,41.0,30.17,ESE,122,0.0,0.0,93,0.00,,,0.00,WUHU216DAVISVP2,2013-05-03 09:12:00,
2013-05-03 05:17:00,42.9,41.0,30.17,ESE,122,0.0,0.0,93,0.00,,,0.00,WUHU216DAVISVP2,2013-05-03 09:17:00,
2013-05-03 05:22:00,42.8,40.9,30.18,ESE,122,0.0,0.0,93,0.00,,,0.00,WUHU216DAVISVP2,2013-05-03 09:22:00,
2013-05-03 05:27:00,42.1,40.2,30.18,ESE,122,0.0,0.0,93,0.00,,,0.00,WUHU216DAVISVP2,2013-05-03 09:27:00,
2013-05-03 05:32:00,41.8,39.9,30.18,ESE,122,0.0,0.0,93,0.00,,,0.00,WUHU216DAVISVP2,2013-05-03 09:32:00,
2013-05-03 05:37:00,41.5,39.6,30.18,ESE,122,0.0,0.0,93,0.00,,,0.00,WUHU216DAVISVP2,2013-05-03 09:37:00,
2013-05-03 05:42:00,41.6,39.7,30.18,ESE,122,0.0,0.0,93,0.00,,,0.00,WUHU216DAVISVP2,2013-05-03 09:42:00,
2013-05-03 05:47:00,41.9,40.0,30.18,ESE,122,0.0,0.0,93,0.00,,,0.00,WUHU216DAVISVP2,2013-05-03 09:47:00,
2013-05-03 05:52:00,41.8,39.9,30.18,ESE,122,0.0,0.0,93,0.00,,,0.00,WUHU216DAVISVP2,2013-05-03 09:52:00,
2013-05-03 05:57:00,41.4,39.8,30.18,ESE,122,0.0,0.0,94,0.00,,,0.00,WUHU216DAVISVP2,2013-05-03 09:57:00,
2013-05-03 06:02:00,40.6,39.0,30.18,ESE,122,0.0,0.0,94,0.00,,,0.00,WUHU216DAVISVP2,2013-05-03 10:02:00,
2013-05-03 06:07:00,40.6,39.0,30.19,ESE,122,0.0,1.0,94,0.00,,,0.00,WUHU216DAVISVP2,2013-05-03 10:07:00,
2013-05-03 06:12:00,40.5,38.9,30.19,ESE,122,0.0,1.0,94,0.00,,,0.00,WUHU216DAVISVP2,2013-05-03 10:12:00,
2013-05-03 06:17:00,40.3,38.7,30.19,ESE,122,0.0,1.0,94,0.00,,,0.00,WUHU216DAVISVP2,2013-05-03 10:17:00,
2013-05-03 06:22:00,40.4,38.8,30.19,ESE,122,0.0,1.0,94,0.00,,,0.00,WUHU216DAVISVP2,2013-05-03 10:22:00,
2013-05-03 06:27:00,40.2,38.6,30.19,ESE,122,0.0,0.0,94,0.00,,,0.00,WUHU216DAVISVP2,2013-05-03 10:27:00,
2013-05-03 06:32:00,40.1,38.5,30.19,ESE,123,0.0,0.0,94,0.00,,,0.00,WUHU216DAVISVP2,2013-05-03 10:32:00,
2013-05-03 06:37:00,40.2,38.6,30.19,ESE,122,0.0,0.0,94,0.00,,,0.00,WUHU216DAVISVP2,2013-05-03 10:37:00,
2013-05-03 06:42:00,40.4,38.8,30.19,ESE,122,0.0,1.0,94,0.00,,,0.00,WUHU216DAVISVP2,2013-05-03 10:42:00,
2013-05-03 06:47:00,40.6,39.0,30.19,ESE,123,0.0,1.0,94,0.00,,,0.00,WUHU216DAVISVP2,2013-05-03 10:47:00,
2013-05-03 06:52:00,40.4,38.8,30.19,ESE,122,0.0,1.0,94,0.00,,,0.00,WUHU216DAVISVP2,2013-05-03 10:52:00,
2013-05-03 06:57:00,40.4,38.8,30.19,ESE,122,0.0,0.0,94,0.00,,,0.00,WUHU216DAVISVP2,2013-05-03 10:57:00,
2013-05-03 07:02:00,40.4,38.8,30.19,ESE,122,0.0,0.0,94,0.00,,,0.00,WUHU216DAVISVP2,2013-05-03 11:02:00,
2013-05-03 07:07:00,40.3,38.7,30.19,ESE,123,0.0,0.0,94,0.00,,,0.00,WUHU216DAVISVP2,2013-05-03 11:07:00,
2013-05-03 07:12:00,39.7,38.1,30.19,ESE,122,0.0,0.0,94,0.00,,,0.00,WUHU216DAVISVP2,2013-05-03 11:12:00,
2013-05-03 07:17:00,40.0,38.4,30.19,ESE,122,0.0,0.0,94,0.00,,,0.00,WUHU216DAVISVP2,2013-05-03 11:17:00,
2013-05-03 07:22:00,41.0,39.4,30.19,ESE,122,0.0,0.0,94,0.00,,,0.00,WUHU216DAVISVP2,2013-05-03 11:22:00,
2013-05-03 07:27:00,41.7,40.1,30.19,ESE,118,0.0,1.0,94,0.00,,,0.00,WUHU216DAVISVP2,2013-05-03 11:27:00,
2013-05-03 07:32:00,42.6,40.9,30.19,ESE,119,0.0,1.0,94,0.00,,,0.00,WUHU216DAVISVP2,2013-05-03 11:32:00,
2013-05-03 07:37:00,43.7,42.0,30.19,ESE,118,0.0,1.0,94,0.00,,,0.00,WUHU216DAVISVP2,2013-05-03 11:37:00,
2013-05-03 07:42:00,44.4,42.7,30.19,ESE,118,0.0,1.0,94,0.00,,,0.00,WUHU216DAVISVP2,2013-05-03 11:42:00,
2013-05-03 07:47:00,45.7,44.0,30.19,ESE,118,0.0,0.0,94,0.00,,,0.00,WUHU216DAVISVP2,2013-05-03 11:47:00,
2013-05-03 07:52:00,47.1,45.4,30.19,ESE,118,0.0,0.0,94,0.00,,,0.00,WUHU216DAVISVP2,2013-05-03 11:52:00,
2013-05-03 07:57:00,47.2,45.0,30.19,ESE,119,0.0,0.0,92,0.00,,,0.00,WUHU216DAVISVP2,2013-05-03 11:57:00,
2013-05-03 08:02:00,47.4,44.9,30.19,ESE,118,1.0,1.0,91,0.00,,,0.00,WUHU216DAVISVP2,2013-05-03 12:02:00,
2013-05-03 08:07:00,47.5,45.0,30.19,ESE,118,0.0,1.0,91,0.00,,,0.00,WUHU216DAVISVP2,2013-05-03 12:07:00,
2013-05-03 08:12:00,48.5,46.0,30.19,ESE,119,1.0,1.0,91,0.00,,,0.00,WUHU216DAVISVP2,2013-05-03 12:12:00,
2013-05-03 08:17:00,49.1,46.0,30.19,ENE,71,1.0,1.0,89,0.00,,,0.00,WUHU216DAVISVP2,2013-05-03 12:17:00,
2013-05-03 08:22:00,49.5,46.4,30.19,ENE,70,1.0,1.0,89,0.00,,,0.00,WUHU216DAVISVP2,2013-05-03 12:22:00,
2013-05-03 08:27:00,50.1,47.0,30.19,ENE,71,1.0,1.0,89,0.00,,,0.00,WUHU216DAVISVP2,2013-05-03 12:27:00,
2013-05-03 08:32:00,50.7,46.7,30.19,ENE,71,1.0,1.0,86,0.00,,,0.00,WUHU216DAVISVP2,2013-05-03 12:32:00,
2013-05-03 08:37:00,51.2,46.8,30.19,ENE,70,1.0,2.0,85,0.00,,,0.00,WUHU216DAVISVP2,2013-05-03 12:37:00,
2013-05-03 08:42:00,51.6,46.9,30.19,ENE,71,1.0,2.0,84,0.00,,,0.00,WUHU216DAVISVP2,2013-05-03 12:42:00,
2013-05-03 08:47:00,52.4,46.4,30.19,ENE,70,0.0,2.0,80,0.00,,,0.00,WUHU216DAVISVP2,2013-05-03 12:47:00,
2013-05-03 08:52:00,53.2,47.2,30.19,ENE,71,0.0,1.0,80,0.00,,,0.00,WUHU216DAVISVP2,2013-05-03 12:52:00,
2013-05-03 08:57:00,54.0,47.4,30.19,ENE,70,0.0,1.0,78,0.00,,,0.00,WUHU216DAVISVP2,2013-05-03 12:57:00,
2013-05-03 09:02:00,55.3,47.9,30.19,ENE,70,0.0,1.0,76,0.00,,,0.00,WUHU216DAVISVP2,2013-05-03 13:02:00,
2013-05-03 09:07:00,57.0,48.9,30.19,ENE,69,1.0,1.0,74,0.00,,,0.00,WUHU216DAVISVP2,2013-05-03 13:07:00,
2013-05-03 09:12:00,57.4,48.2,30.18,SSE,164,1.0,1.0,71,0.00,,,0.00,WUHU216DAVISVP2,2013-05-03 13:12:00,
2013-05-03 09:17:00,58.8,46.4,30.18,SSW,204,1.0,1.0,63,0.00,,,0.00,WUHU216DAVISVP2,2013-05-03 13:17:00,
2013-05-03 09:22:00,59.1,46.2,30.18,West,275,1.2,2.0,62,0.00,,,0.00,WUHU216DAVISVP2,2013-05-03 13:22:00,
2013-05-03 09:27:00,59.5,45.7,30.18,West,274,1.1,2.0,60,0.00,,,0.00,WUHU216DAVISVP2,2013-05-03 13:27:00,
2013-05-03 09:32:00,60.0,46.6,30.18,WSW,251,1.0,2.0,61,0.00,,,0.00,WUHU216DAVISVP2,2013-05-03 13:32:00,
2013-05-03 09:37:00,61.1,45.9,30.18,WNW,285,1.0,2.0,57,0.00,,,0.00,WUHU216DAVISVP2,2013-05-03 13:37:00,
2013-05-03 09:42:00,61.8,46.0,30.18,ENE,68,1.5,3.0,56,0.00,,,0.00,WUHU216DAVISVP2,2013-05-03 13:42:00,
2013-05-03 09:47:00,62.4,45.1,30.18,ENE,65,1.0,3.0,53,0.00,,,0.00,WUHU216DAVISVP2,2013-05-03 13:47:00,
2013-05-03 09:52:00,62.9,45.6,30.17,ENE,75,0.0,3.0,53,0.00,,,0.00,WUHU216DAVISVP2,2013-05-03 13:52:00,
2013-05-03 09:57:00,63.5,45.6,30.17,NNW,330,1.0,3.0,52,0.00,,,0.00,WUHU216DAVISVP2,2013-05-03 13:57:00,
2013-05-03 10:02:00,63.6,45.7,30.17,West,260,3.0,3.0,52,0.00,,,0.00,WUHU216DAVISVP2,2013-05-03 14:02:00,
2013-05-03 10:07:00,63.3,43.8,30.17,West,268,1.5,3.0,49,0.00,,,0.00,WUHU216DAVISVP2,2013-05-03 14:07:00,
2013-05-03 10:12:00,63.8,43.2,30.17,WNW,283,2.0,3.0,47,0.00,,,0.00,WUHU216DAVISVP2,2013-05-03 14:12:00,
2013-05-03 10:17:00,64.5,42.6,30.17,SSW,211,1.4,3.0,45,0.00,,,0.00,WUHU216DAVISVP2,2013-05-03 14:17:00,
2013-05-03 10:22:00,65.0,41.9,30.17,SSE,149,1.2,2.0,43,0.00,,,0.00,WUHU216DAVISVP2,2013-05-03 14:22:00,
2013-05-03 10:27:00,65.4,43.4,30.17,WNW,302,1.3,2.0,45,0.00,,,0.00,WUHU216DAVISVP2,2013-05-03 14:27:00,
2013-05-03 10:32:00,65.2,44.4,30.17,West,263,1.0,2.0,47,0.00,,,0.00,WUHU216DAVISVP2,2013-05-03 14:32:00,
2013-05-03 10:37:00,65.6,42.4,30.17,SW,236,1.0,3.0,43,0.00,,,0.00,WUHU216DAVISVP2,2013-05-03 14:37:00,
2013-05-03 10:42:00,65.9,42.7,30.17,SW,231,1.4,3.0,43,0.00,,,0.00,WUHU216DAVISVP2,2013-05-03 14:42:00,
2013-05-03 10:47:00,66.6,42.0,30.17,WSW,250,1.2,3.0,41,0.00,,,0.00,WUHU216DAVISVP2,2013-05-03 14:47:00,
2013-05-03 10:52:00,67.1,42.5,30.16,West,273,1.4,3.0,41,0.00,,,0.00,WUHU216DAVISVP2,2013-05-03 14:52:00,
2013-05-03 10:57:00,68.1,41.4,30.16,ESE,113,1.1,3.0,38,0.00,,,0.00,WUHU216DAVISVP2,2013-05-03 14:57:00,
2013-05-03 11:02:00,68.4,41.6,30.16,SSW,211,1.2,3.0,38,0.00,,,0.00,WUHU216DAVISVP2,2013-05-03 15:02:00,
2013-05-03 11:07:00,69.1,43.0,30.16,SE,124,1.4,3.0,39,0.00,,,0.00,WUHU216DAVISVP2,2013-05-03 15:07:00,
2013-05-03 11:12:00,70.1,43.9,30.16,WSW,249,1.1,3.0,39,0.00,,,0.00,WUHU216DAVISVP2,2013-05-03 15:12:00,
2013-05-03 11:17:00,70.4,41.3,30.15,North,3,1.3,3.0,35,0.00,,,0.00,WUHU216DAVISVP2,2013-05-03 15:17:00,
2013-05-03 11:22:00,70.9,43.9,30.15,WSW,243,3.0,4.0,38,0.00,,,0.00,WUHU216DAVISVP2,2013-05-03 15:22:00,
2013-05-03 11:27:00,70.8,40.1,30.15,WNW,302,1.6,4.0,33,0.00,,,0.00,WUHU216DAVISVP2,2013-05-03 15:27:00,
2013-05-03 11:32:00,70.9,39.4,30.15,WNW,294,2.3,5.0,32,0.00,,,0.00,WUHU216DAVISVP2,2013-05-03 15:32:00,
2013-05-03 11:37:00,71.7,38.6,30.15,South,186,3.0,5.0,30,0.00,,,0.00,WUHU216DAVISVP2,2013-05-03 15:37:00,
2013-05-03 11:42:00,72.6,38.5,30.15,WSW,240,1.7,5.0,29,0.00,,,0.00,WUHU216DAVISVP2,2013-05-03 15:42:00,
2013-05-03 11:47:00,73.3,37.3,30.14,North,11,2.0,5.0,27,0.00,,,0.00,WUHU216DAVISVP2,2013-05-03 15:47:00,
2013-05-03 11:52:00,73.8,37.7,30.15,NE,56,5.0,6.0,27,0.00,,,0.00,WUHU216DAVISVP2,2013-05-03 15:52:00,
2013-05-03 11:57:00,74.4,39.2,30.14,ENE,61,2.1,6.0,28,0.00,,,0.00,WUHU216DAVISVP2,2013-05-03 15:57:00,
2013-05-03 12:02:00,75.6,36.2,30.14,East,101,2.8,7.0,24,0.00,,,0.00,WUHU216DAVISVP2,2013-05-03 16:02:00,
2013-05-03 12:07:00,76.1,37.7,30.14,East,94,1.9,7.0,25,0.00,,,0.00,WUHU216DAVISVP2,2013-05-03 16:07:00,
2013-05-03 12:12:00,76.4,34.7,30.14,SW,219,3.4,7.0,22,0.00,,,0.00,WUHU216DAVISVP2,2013-05-03 16:12:00,
2013-05-03 12:17:00,76.2,32.2,30.14,ESE,106,2.8,9.0,20,0.00,,,0.00,WUHU216DAVISVP2,2013-05-03 16:17:00,
2013-05-03 12:22:00,76.3,32.3,30.14,East,90,2.7,11.0,20,0.00,,,0.00,WUHU216DAVISVP2,2013-05-03 16:22:00,
2013-05-03 12:27:00,76.6,31.2,30.14,WSW,246,2.4,11.0,19,0.00,,,0.00,WUHU216DAVISVP2,2013-05-03 16:27:00,
2013-05-03 12:32:00,77.1,31.6,30.14,NW,315,6.0,11.0,19,0.00,,,0.00,WUHU216DAVISVP2,2013-05-03 16:32:00,
2013-05-03 12:37:00,76.9,31.5,30.14,East,99,4.6,10.0,19,0.00,,,0.00,WUHU216DAVISVP2,2013-05-03 16:37:00,
2013-05-03 12:42:00,77.0,32.8,30.13,South,191,3.5,9.0,20,0.00,,,0.00,WUHU216DAVISVP2,2013-05-03 16:42:00,
2013-05-03 12:47:00,77.4,34.4,30.13,NE,44,2.0,9.0,21,0.00,,,0.00,WUHU216DAVISVP2,2013-05-03 16:47:00,
2013-05-03 12:52:00,77.6,35.7,30.13,ENE,67,2.6,7.0,22,0.00,,,0.00,WUHU216DAVISVP2,2013-05-03 16:52:00,
2013-05-03 12:57:00,77.7,32.1,30.13,North,356,7.0,7.0,19,0.00,,,0.00,WUHU216DAVISVP2,2013-05-03 16:57:00,
2013-05-03 13:02:00,78.1,38.4,30.13,NE,39,5.0,9.0,24,0.00,,,0.00,WUHU216DAVISVP2,2013-05-03 17:02:00,
2013-05-03 13:07:00,77.4,30.5,30.12,ESE,106,5.0,9.0,18,0.00,,,0.00,WUHU216DAVISVP2,2013-05-03 17:07:00,
2013-05-03 13:12:00,77.5,37.8,30.12,WSW,237,1.7,9.0,24,0.00,,,0.00,WUHU216DAVISVP2,2013-05-03 17:12:00,
2013-05-03 13:17:00,78.0,32.4,30.12,West,259,3.0,9.0,19,0.00,,,0.00,WUHU216DAVISVP2,2013-05-03 17:17:00,
2013-05-03 13:22:00,78.2,33.8,30.12,East,90,2.8,7.0,20,0.00,,,0.00,WUHU216DAVISVP2,2013-05-03 17:22:00,
2013-05-03 13:27:00,78.4,35.2,30.12,SW,235,4.0,8.0,21,0.00,,,0.00,WUHU216DAVISVP2,2013-05-03 17:27:00,
2013-05-03 13:32:00,78.4,34.0,30.12,SSE,166,3.5,8.0,20,0.00,,,0.00,WUHU216DAVISVP2,2013-05-03 17:32:00,
2013-05-03 13:37:00,78.4,34.0,30.12,NE,53,2.5,8.0,20,0.00,,,0.00,WUHU216DAVISVP2,2013-05-03 17:37:00,
2013-05-03 13:42:00,78.3,38.4,30.12,ENE,57,6.0,8.0,24,0.00,,,0.00,WUHU216DAVISVP2,2013-05-03 17:42:00,
2013-05-03 13:47:00,77.7,33.4,30.12,ESE,115,6.0,8.0,20,0.00,,,0.00,WUHU216DAVISVP2,2013-05-03 17:47:00,
2013-05-03 13:52:00,78.0,40.2,30.11,North,353,2.3,8.0,26,0.00,,,0.00,WUHU216DAVISVP2,2013-05-03 17:52:00,
2013-05-03 13:57:00,78.5,36.4,30.11,NE,53,2.3,8.0,22,0.00,,,0.00,WUHU216DAVISVP2,2013-05-03 17:57:00,
2013-05-03 14:02:00,78.3,35.1,30.11,East,91,4.0,9.0,21,0.00,,,0.00,WUHU216DAVISVP2,2013-05-03 18:02:00,
2013-05-03 14:07:00,77.6,34.5,30.11,SE,126,2.8,9.0,21,0.00,,,0.00,WUHU216DAVISVP2,2013-05-03 18:07:00,
2013-05-03 14:12:00,77.3,35.4,30.11,East,92,3.7,8.0,22,0.00,,,0.00,WUHU216DAVISVP2,2013-05-03 18:12:00,
2013-05-03 14:17:00,77.4,36.6,30.11,ENE,74,2.2,8.0,23,0.00,,,0.00,WUHU216DAVISVP2,2013-05-03 18:17:00,
2013-05-03 14:22:00,77.5,35.6,30.11,ENE,77,2.2,8.0,22,0.00,,,0.00,WUHU216DAVISVP2,2013-05-03 18:22:00,
2013-05-03 14:27:00,77.6,34.5,30.11,ESE,111,6.0,12.0,21,0.00,,,0.00,WUHU216DAVISVP2,2013-05-03 18:27:00,
2013-05-03 14:32:00,77.4,34.4,30.11,ENE,73,3.4,12.0,21,0.00,,,0.00,WUHU216DAVISVP2,2013-05-03 18:32:00,
2013-05-03 14:37:00,77.5,34.4,30.11,SW,228,6.0,12.0,21,0.00,,,0.00,WUHU216DAVISVP2,2013-05-03 18:37:00,
2013-05-03 14:42:00,77.3,36.5,30.10,NE,50,10.0,11.0,23,0.00,,,0.00,WUHU216DAVISVP2,2013-05-03 18:42:00,
2013-05-03 14:47:00,77.3,35.4,30.10,East,82,5.6,14.0,22,0.00,,,0.00,WUHU216DAVISVP2,2013-05-03 18:47:00,
2013-05-03 14:52:00,77.3,36.5,30.10,ESE,108,4.0,14.0,23,0.00,,,0.00,WUHU216DAVISVP2,2013-05-03 18:52:00,
2013-05-03 14:57:00,77.4,37.7,30.10,SW,219,2.6,14.0,24,0.00,,,0.00,WUHU216DAVISVP2,2013-05-03 18:57:00,
2013-05-03 15:02:00,77.6,37.9,30.10,ESE,117,3.0,13.0,24,0.00,,,0.00,WUHU216DAVISVP2,2013-05-03 19:02:00,
2013-05-03 15:07:00,77.5,38.8,30.10,SE,124,2.0,11.0,25,0.00,,,0.00,WUHU216DAVISVP2,2013-05-03 19:07:00,
2013-05-03 15:12:00,77.8,39.0,30.10,East,97,3.9,11.0,25,0.00,,,0.00,WUHU216DAVISVP2,2013-05-03 19:12:00,
2013-05-03 15:17:00,77.9,38.1,30.10,ESE,102,4.7,10.0,24,0.00,,,0.00,WUHU216DAVISVP2,2013-05-03 19:17:00,
2013-05-03 15:22:00,78.1,39.3,30.09,ENE,73,3.4,10.0,25,0.00,,,0.00,WUHU216DAVISVP2,2013-05-03 19:22:00,
2013-05-03 15:27:00,78.5,38.6,30.09,SE,127,6.0,10.0,24,0.00,,,0.00,WUHU216DAVISVP2,2013-05-03 19:27:00,
2013-05-03 15:32:00,78.5,38.6,30.09,East,97,3.6,9.0,24,0.00,,,0.00,WUHU216DAVISVP2,2013-05-03 19:32:00,
2013-05-03 15:37:00,78.8,39.9,30.09,East,88,2.4,9.0,25,0.00,,,0.00,WUHU216DAVISVP2,2013-05-03 19:37:00,
2013-05-03 15:42:00,78.8,37.8,30.09,ENE,69,7.0,14.0,23,0.00,,,0.00,WUHU216DAVISVP2,2013-05-03 19:42:00,
2013-05-03 15:47:00,78.0,40.2,30.09,East,99,4.0,22.0,26,0.00,,,0.00,WUHU216DAVISVP2,2013-05-03 19:47:00,
2013-05-03 15:52:00,77.9,38.2,30.09,South,190,4.0,22.0,24,0.00,,,0.00,WUHU216DAVISVP2,2013-05-03 19:52:00,
2013-05-03 15:57:00,77.7,39.1,30.09,ESE,115,4.0,22.0,25,0.00,,,0.00,WUHU216DAVISVP2,2013-05-03 19:57:00,
2013-05-03 16:02:00,77.7,39.1,30.09,ESE,113,4.5,22.0,25,0.00,,,0.00,WUHU216DAVISVP2,2013-05-03 20:02:00,
2013-05-03 16:07:00,77.7,39.1,30.09,SE,133,7.0,13.0,25,0.00,,,0.00,WUHU216DAVISVP2,2013-05-03 20:07:00,
2013-05-03 16:12:00,77.0,38.5,30.09,NE,53,4.0,12.0,25,0.00,,,0.00,WUHU216DAVISVP2,2013-05-03 20:12:00,
2013-05-03 16:17:00,76.4,39.0,30.09,East,89,4.0,12.0,26,0.00,,,0.00,WUHU216DAVISVP2,2013-05-03 20:17:00,
2013-05-03 16:22:00,76.8,40.3,30.09,WSW,246,2.0,10.0,27,0.00,,,0.00,WUHU216DAVISVP2,2013-05-03 20:22:00,
2013-05-03 16:27:00,77.5,42.7,30.08,SE,146,1.7,10.0,29,0.00,,,0.00,WUHU216DAVISVP2,2013-05-03 20:27:00,
2013-05-03 16:32:00,77.4,40.8,30.09,NE,45,5.0,11.0,27,0.00,,,0.00,WUHU216DAVISVP2,2013-05-03 20:32:00,
2013-05-03 16:37:00,76.6,42.8,30.08,ESE,116,2.8,11.0,30,0.00,,,0.00,WUHU216DAVISVP2,2013-05-03 20:37:00,
2013-05-03 16:42:00,76.8,40.3,30.09,East,99,3.7,10.0,27,0.00,,,0.00,WUHU216DAVISVP2,2013-05-03 20:42:00,
2013-05-03 16:47:00,76.8,42.1,30.08,SE,135,4.0,10.0,29,0.00,,,0.00,WUHU216DAVISVP2,2013-05-03 20:47:00,
2013-05-03 16:52:00,76.6,41.0,30.08,East,96,4.2,10.0,28,0.00,,,0.00,WUHU216DAVISVP2,2013-05-03 20:52:00,
2013-05-03 16:57:00,76.8,41.1,30.08,SW,225,4.0,13.0,28,0.00,,,0.00,WUHU216DAVISVP2,2013-05-03 20:57:00,
2013-05-03 17:02:00,76.6,40.9,30.08,East,95,3.6,13.0,28,0.00,,,0.00,WUHU216DAVISVP2,2013-05-03 21:02:00,
2013-05-03 17:07:00,76.5,43.4,30.08,ENE,74,1.9,11.0,31,0.00,,,0.00,WUHU216DAVISVP2,2013-05-03 21:07:00,
2013-05-03 17:12:00,76.5,41.7,30.08,SW,234,2.1,11.0,29,0.00,,,0.00,WUHU216DAVISVP2,2013-05-03 21:12:00,
2013-05-03 17:17:00,76.6,41.8,30.08,South,180,1.4,10.0,29,0.00,,,0.00,WUHU216DAVISVP2,2013-05-03 21:17:00,
2013-05-03 17:22:00,76.7,42.8,30.08,NNW,348,2.4,7.0,30,0.00,,,0.00,WUHU216DAVISVP2,2013-05-03 21:22:00,
2013-05-03 17:27:00,75.7,42.7,30.08,WNW,284,2.0,7.0,31,0.00,,,0.00,WUHU216DAVISVP2,2013-05-03 21:27:00,
2013-05-03 17:32:00,75.5,43.4,30.09,SE,129,3.0,8.0,32,0.00,,,0.00,WUHU216DAVISVP2,2013-05-03 21:32:00,
2013-05-03 17:37:00,75.2,42.3,30.09,East,91,3.0,8.0,31,0.00,,,0.00,WUHU216DAVISVP2,2013-05-03 21:37:00,
2013-05-03 17:42:00,75.4,43.3,30.09,ESE,122,1.4,7.0,32,0.00,,,0.00,WUHU216DAVISVP2,2013-05-03 21:42:00,
2013-05-03 17:48:00,76.1,44.7,30.09,East,96,2.0,6.0,33,0.00,,,0.00,WUHU216DAVISVP2,2013-05-03 21:48:00,
2013-05-03 17:53:00,76.6,43.5,30.09,ESE,104,2.3,6.0,31,0.00,,,0.00,WUHU216DAVISVP2,2013-05-03 21:53:00,
2013-05-03 17:58:00,76.9,43.8,30.09,West,277,3.0,6.0,31,0.00,,,0.00,WUHU216DAVISVP2,2013-05-03 21:58:00,
2013-05-03 18:03:00,76.3,43.3,30.09,East,88,3.7,11.0,31,0.00,,,0.00,WUHU216DAVISVP2,2013-05-03 22:03:00,
2013-05-03 18:08:00,75.0,43.0,30.09,SE,138,6.1,13.0,32,0.00,,,0.00,WUHU216DAVISVP2,2013-05-03 22:08:00,
2013-05-03 18:13:00,74.3,43.9,30.09,SE,127,1.1,13.0,34,0.00,,,0.00,WUHU216DAVISVP2,2013-05-03 22:13:00,
2013-05-03 18:18:00,74.0,42.9,30.10,SE,136,1.6,12.0,33,0.00,,,0.00,WUHU216DAVISVP2,2013-05-03 22:18:00,
2013-05-03 18:23:00,73.2,43.7,30.10,SE,139,4.0,12.0,35,0.00,,,0.00,WUHU216DAVISVP2,2013-05-03 22:23:00,
2013-05-03 18:28:00,72.5,43.9,30.10,NE,43,4.0,7.0,36,0.00,,,0.00,WUHU216DAVISVP2,2013-05-03 22:28:00,
2013-05-03 18:33:00,71.8,41.7,30.10,East,96,2.7,6.0,34,0.00,,,0.00,WUHU216DAVISVP2,2013-05-03 22:33:00,
2013-05-03 18:38:00,71.2,42.0,30.10,East,90,3.8,11.0,35,0.00,,,0.00,WUHU216DAVISVP2,2013-05-03 22:38:00,
2013-05-03 18:43:00,70.9,42.4,30.10,East,96,4.3,11.0,36,0.00,,,0.00,WUHU216DAVISVP2,2013-05-03 22:43:00,
2013-05-03 18:48:00,70.6,43.6,30.10,North,11,1.4,11.0,38,0.00,,,0.00,WUHU216DAVISVP2,2013-05-03 22:48:00,
2013-05-03 18:53:00,70.2,43.9,30.10,NNE,26,1.2,11.0,39,0.00,,,0.00,WUHU216DAVISVP2,2013-05-03 22:53:00,
2013-05-03 18:58:00,69.9,42.3,30.10,East,98,1.9,8.0,37,0.00,,,0.00,WUHU216DAVISVP2,2013-05-03 22:58:00,
2013-05-03 19:03:00,69.6,42.7,30.11,East,101,3.0,7.0,38,0.00,,,0.00,WUHU216DAVISVP2,2013-05-03 23:03:00,
2013-05-03 19:08:00,69.4,42.5,30.10,East,83,4.0,7.0,38,0.00,,,0.00,WUHU216DAVISVP2,2013-05-03 23:08:00,
2013-05-03 19:13:00,69.1,42.3,30.11,East,96,3.7,8.0,38,0.00,,,0.00,WUHU216DAVISVP2,2013-05-03 23:13:00,
2013-05-03 19:18:00,69.0,42.9,30.11,ESE,102,1.1,8.0,39,0.00,,,0.00,WUHU216DAVISVP2,2013-05-03 23:18:00,
2013-05-03 19:23:00,68.8,43.4,30.11,South,174,2.1,8.0,40,0.00,,,0.00,WUHU216DAVISVP2,2013-05-03 23:23:00,
2013-05-03 19:28:00,68.5,42.4,30.11,East,85,3.4,9.0,39,0.00,,,0.00,WUHU216DAVISVP2,2013-05-03 23:28:00,
2013-05-03 19:33:00,68.3,42.9,30.11,NNW,338,3.0,9.0,40,0.00,,,0.00,WUHU216DAVISVP2,2013-05-03 23:33:00,
2013-05-03 19:38:00,68.0,43.3,30.11,ENE,59,6.0,11.0,41,0.00,,,0.00,WUHU216DAVISVP2,2013-05-03 23:38:00,
2013-05-03 19:43:00,67.9,43.2,30.11,ESE,104,2.5,11.0,41,0.00,,,0.00,WUHU216DAVISVP2,2013-05-03 23:43:00,
2013-05-03 19:48:00,67.6,42.9,30.11,NE,56,3.4,10.0,41,0.00,,,0.00,WUHU216DAVISVP2,2013-05-03 23:48:00,
2013-05-03 19:53:00,67.4,42.8,30.12,ESE,110,6.0,10.0,41,0.00,,,0.00,WUHU216DAVISVP2,2013-05-03 23:53:00,
2013-05-03 19:58:00,67.3,43.3,30.11,ESE,112,2.0,7.0,42,0.00,,,0.00,WUHU216DAVISVP2,2013-05-03 23:58:00,
2013-05-03 20:03:00,66.9,43.6,30.11,ESE,121,0.0,7.0,43,0.00,,,0.00,WUHU216DAVISVP2,2013-05-04 00:03:00,
2013-05-03 20:08:00,66.6,43.3,30.11,SE,127,2.3,7.0,43,0.00,,,0.00,WUHU216DAVISVP2,2013-05-04 00:08:00,
2013-05-03 20:13:00,66.4,43.1,30.12,East,97,2.4,11.0,43,0.00,,,0.00,WUHU216DAVISVP2,2013-05-04 00:13:00,
2013-05-03 20:18:00,66.3,43.7,30.12,East,81,2.1,11.0,44,0.00,,,0.00,WUHU216DAVISVP2,2013-05-04 00:18:00,
2013-05-03 20:23:00,65.8,44.4,30.12,East,79,1.3,10.0,46,0.00,,,0.00,WUHU216DAVISVP2,2013-05-04 00:23:00,
2013-05-03 20:28:00,65.4,44.0,30.12,East,96,2.8,10.0,46,0.00,,,0.00,WUHU216DAVISVP2,2013-05-04 00:28:00,
2013-05-03 20:33:00,65.4,44.0,30.12,East,95,2.0,5.0,46,0.00,,,0.00,WUHU216DAVISVP2,2013-05-04 00:33:00,
2013-05-03 20:38:00,65.3,43.9,30.12,ENE,72,1.4,5.0,46,0.00,,,0.00,WUHU216DAVISVP2,2013-05-04 00:38:00,
2013-05-03 20:43:00,65.1,43.8,30.12,East,98,4.0,5.0,46,0.00,,,0.00,WUHU216DAVISVP2,2013-05-04 00:43:00,
2013-05-03 20:48:00,65.0,43.7,30.12,ENE,71,3.3,5.0,46,0.00,,,0.00,WUHU216DAVISVP2,2013-05-04 00:48:00,
2013-05-03 20:53:00,65.0,43.7,30.12,East,89,2.8,8.0,46,0.00,,,0.00,WUHU216DAVISVP2,2013-05-04 00:53:00,
2013-05-03 20:58:00,65.1,43.8,30.13,East,100,1.2,8.0,46,0.00,,,0.00,WUHU216DAVISVP2,2013-05-04 00:58:00,
2013-05-03 21:03:00,64.7,44.0,30.13,East,92,1.3,8.0,47,0.00,,,0.00,WUHU216DAVISVP2,2013-05-04 01:03:00,
2013-05-03 21:08:00,64.0,45.5,30.12,ESE,121,2.0,7.0,51,0.00,,,0.00,WUHU216DAVISVP2,2013-05-04 01:08:00,
2013-05-03 21:13:00,63.4,44.9,30.13,NE,47,4.0,5.0,51,0.00,,,0.00,WUHU216DAVISVP2,2013-05-04 01:13:00,
2013-05-03 21:18:00,63.2,44.8,30.13,East,82,1.5,5.0,51,0.00,,,0.00,WUHU216DAVISVP2,2013-05-04 01:18:00,
2013-05-03 21:23:00,63.3,43.8,30.13,ENE,58,1.3,5.0,49,0.00,,,0.00,WUHU216DAVISVP2,2013-05-04 01:23:00,
2013-05-03 21:28:00,63.4,43.9,30.13,ESE,114,1.3,4.0,49,0.00,,,0.00,WUHU216DAVISVP2,2013-05-04 01:28:00,
2013-05-03 21:33:00,63.4,43.9,30.13,ESE,122,1.0,4.0,49,0.00,,,0.00,WUHU216DAVISVP2,2013-05-04 01:33:00,
2013-05-03 21:38:00,63.5,43.4,30.13,ESE,113,5.0,13.0,48,0.00,,,0.00,WUHU216DAVISVP2,2013-05-04 01:38:00,
2013-05-03 21:43:00,63.7,43.6,30.13,East,90,4.9,13.0,48,0.00,,,0.00,WUHU216DAVISVP2,2013-05-04 01:43:00,
2013-05-03 21:48:00,63.7,43.6,30.14,East,87,1.1,12.0,48,0.00,,,0.00,WUHU216DAVISVP2,2013-05-04 01:48:00,
2013-05-03 21:53:00,63.4,43.4,30.14,ESE,107,1.5,12.0,48,0.00,,,0.00,WUHU216DAVISVP2,2013-05-04 01:53:00,
2013-05-03 21:58:00,63.0,43.5,30.14,ENE,73,4.0,8.0,49,0.00,,,0.00,WUHU216DAVISVP2,2013-05-04 01:58:00,
2013-05-03 22:03:00,62.9,44.0,30.14,ENE,77,2.6,10.0,50,0.00,,,0.00,WUHU216DAVISVP2,2013-05-04 02:03:00,
2013-05-03 22:08:00,62.5,43.6,30.14,ENE,66,2.0,10.0,50,0.00,,,0.00,WUHU216DAVISVP2,2013-05-04 02:08:00,
2013-05-03 22:13:00,62.4,43.5,30.14,East,89,1.0,9.0,50,0.00,,,0.00,WUHU216DAVISVP2,2013-05-04 02:13:00,
2013-05-03 22:18:00,62.2,43.3,30.14,East,98,1.3,6.0,50,0.00,,,0.00,WUHU216DAVISVP2,2013-05-04 02:18:00,
2013-05-03 22:23:00,62.1,43.2,30.14,ESE,106,1.1,4.0,50,0.00,,,0.00,WUHU216DAVISVP2,2013-05-04 02:23:00,
2013-05-03 22:28:00,61.7,42.9,30.14,ENE,66,1.4,4.0,50,0.00,,,0.00,WUHU216DAVISVP2,2013-05-04 02:28:00,
2013-05-03 22:33:00,61.8,43.5,30.14,East,89,1.5,6.0,51,0.00,,,0.00,WUHU216DAVISVP2,2013-05-04 02:33:00,
2013-05-03 22:38:00,61.5,42.7,30.14,East,83,1.0,6.0,50,0.00,,,0.00,WUHU216DAVISVP2,2013-05-04 02:38:00,
2013-05-03 22:43:00,60.8,42.6,30.14,East,83,0.0,5.0,51,0.00,,,0.00,WUHU216DAVISVP2,2013-05-04 02:43:00,
2013-05-03 22:48:00,60.1,42.5,30.14,East,98,1.0,3.0,52,0.00,,,0.00,WUHU216DAVISVP2,2013-05-04 02:48:00,
2013-05-03 22:53:00,59.4,42.8,30.14,East,79,2.0,2.0,54,0.00,,,0.00,WUHU216DAVISVP2,2013-05-04 02:53:00,
2013-05-03 22:58:00,58.6,43.0,30.14,SE,137,1.0,2.0,56,0.00,,,0.00,WUHU216DAVISVP2,2013-05-04 02:58:00,
2013-05-03 23:03:00,57.9,43.3,30.13,SE,134,1.0,2.0,58,0.00,,,0.00,WUHU216DAVISVP2,2013-05-04 03:03:00,
2013-05-03 23:08:00,57.8,42.7,30.13,ESE,113,2.1,4.0,57,0.00,,,0.00,WUHU216DAVISVP2,2013-05-04 03:08:00,
2013-05-03 23:13:00,58.2,43.9,30.13,ESE,108,1.0,4.0,59,0.00,,,0.00,WUHU216DAVISVP2,2013-05-04 03:13:00,
2013-05-03 23:18:00,57.8,42.7,30.13,SE,136,1.2,4.0,57,0.00,,,0.00,WUHU216DAVISVP2,2013-05-04 03:18:00,
2013-05-03 23:23:00,58.2,44.1,30.13,NNE,22,2.0,4.0,59,0.00,,,0.00,WUHU216DAVISVP2,2013-05-04 03:23:00,
2013-05-03 23:28:00,58.5,42.0,30.13,ENE,72,5.0,5.0,54,0.00,,,0.00,WUHU216DAVISVP2,2013-05-04 03:28:00,
2013-05-03 23:33:00,59.4,42.3,30.13,ESE,105,3.0,5.0,53,0.00,,,0.00,WUHU216DAVISVP2,2013-05-04 03:33:00,
2013-05-03 23:38:00,59.9,42.3,30.13,East,97,1.5,5.0,52,0.00,,,0.00,WUHU216DAVISVP2,2013-05-04 03:38:00,
2013-05-03 23:43:00,60.0,41.8,30.12,ESE,121,1.5,5.0,51,0.00,,,0.00,WUHU216DAVISVP2,2013-05-04 03:43:00,
2013-05-03 23:48:00,59.7,42.1,30.13,East,85,1.2,5.0,52,0.00,,,0.00,WUHU216DAVISVP2,2013-05-04 03:48:00,
2013-05-03 23:53:00,59.5,41.9,30.13,East,100,2.0,4.0,52,0.00,,,0.00,WUHU216DAVISVP2,2013-05-04 03:53:00,
2013-05-03 23:58:00,59.2,43.1,30.13,ENE,70,1.3,4.0,55,0.00,,,0.00,WUHU216DAVISVP2,2013-05-04 03:58:00,